Weather in Salt Lake City

United States     40°46′35″N   111°56′56″W
В апреле 2022 года жителям России запретили посещать сайт meteo.paraplan.net по решению Генеральной прокуратуры. Аудитория сайта уменьшилась в 10 раз. Владельцы сайта не видят смысла в поддержке погодного сервера в таких условиях. Сайт будет закрыт в октябре.
temp.,
°C
wind,
m/s
gust,
m/s
humid.,
%
clouds,
%
prec.,
mm/h
press.,
hPa
HPBL,
m
4 october, tue
tue400:00+14w01460 0.0 101915
03:00+13se01470 0.0 101915
06:00+12se01490 0.0 101915
09:00+15ssw01430 0.0 1020124
12:00+20nw22325 0.0 10181049
15:00+22nw43265 0.0 10161461
18:00+20nw33300 0.0 1016675
21:00+15wnw01400 0.0 101844
5 october, wed
wed500:00+14ssw01410 0.0 101917
03:00+13sse01430 0.0 101916
06:00+13se11420 0.0 102016
09:00+16se11340 0.0 102097
12:00+21nnw21240 0.0 1019749
15:00+23nw53230 0.0 10171103
18:00+21nnw33280 0.0 1017391
21:00+16wsw01380 0.0 101922
6 october, thu
thu600:00+15se01380 0.0 102016
03:00+14se11371 0.0 102016
06:00+13se12375 0.0 102116
09:00+16se23301 0.0 1022126
12:00+22ne01195 0.0 1020762
15:00+25nnw43170 0.0 10181296
18:00+22nnw34234 0.0 1018348
21:00+16w01314 0.0 102014
7 october, fri
fri700:00+15se11320 0.0 102114
03:00+15se22290 0.0 102115
06:00+14se22280 0.0 102218
09:00+17se23265 0.0 1022109
12:00+23ese01175 0.0 1020816
15:00+25nnw43145 0.0 10181819
18:00+22nnw34205 0.0 1018329
21:00+16w01295 0.0 101917
8 october, sat
sat800:00+16se112188 0.0 101915
03:00+15sse221938 0.0 101918
06:00+14sse232122 0.0 101931
09:00+17sse35205 0.0 1020181
12:00+24sse331437 0.0 10171018
15:00+26nnw221251 0.0 10152280
18:00+23nnw331667 0.0 1014278
21:00+18sse112136 0.0 101615